Regional Weather Roundup
Issued by NWS

Home | Current Version | Previous Version | Graphics & Text | Print | Product List | Glossary Off
Versions: 1 2 3 4 5 6 7 8 9 10 11 12 13 14 15 16 17 18 19 20 21 22 23 24 25 26 27 28 29 30 31 32 33 34 35 36 37 38 39 40 41 42 43 44 45 46 47 48 49 50

000
ASUS43 KMKX 260000
RWRWI

WISCONSIN REGIONAL WEATHER ROUNDUP
NATIONAL WEATHER SERVICE MILWAUKEE/SULLIVAN WI
700 PM CDT WED MAY 25 2016

NOTE: "FAIR" INDICATES FEW OR NO CLOUDS BELOW 12,000 FEET WITH NO
SIGNIFICANT WEATHER AND/OR OBSTRUCTIONS TO VISIBILITY.

WIZ001-002-006>008-014>016-023>028-260100-
NORTHWEST WISCONSIN

CITY           SKY/WX    TMP DP  RH WIND       PRES   REMARKS
SUPERIOR ARPT  DRIZZLE   44  44  99 E15G24    29.94S
ASHLAND        HVY RAIN  50  50 100 N7        29.94F FOG
6HR MIN TEMP:  49; 6HR MAX TEMP:  58; 6HR PCP:  0.12;

HAYWARD        RAIN      53  51  93 NE13G21   29.89F FOG
6HR MIN TEMP:  53; 6HR MAX TEMP:  78; 6HR PCP:  1.47;

SIREN          CLOUDY    61  58  90 NE10G16   29.85F
CUMBERLAND     CLOUDY    63  61  94 NE8       29.85R
RICE LAKE      DRIZZLE   63  61  92 CALM      29.86S
CHETEK         RAIN      64  64  99 N7        29.84S
LADYSMITH      HVY RAIN  66  64  96 N7        29.85F
EAU CLAIRE     NOT AVBL
MENOMONIE      PTSUNNY   69  68  96 CALM      29.82S
NEW RICHMOND   PTSUNNY   71  61  71 CALM      29.82S
OSCEOLA        CLOUDY    72  65  79 N7        29.83F
$$

WIZ003>005-009-010-017-018-260100-
NORTH CENTRAL WISCONSIN

CITY           SKY/WX    TMP DP  RH WIND       PRES   REMARKS
MANITOWISH WTR NOT AVBL
ARBOR VITAE    RAIN      64  61  88 CALM      29.90S
WOODRUFF       RAIN      64  61  88 CALM      29.90S
RHINELANDER    LGT RAIN  65  60  84 SE10G20   29.89F
6HR MIN TEMP:  65; 6HR MAX TEMP:  79; 6HR PCP:  0.13;

EAGLE RIVER    LGT RAIN  64  58  79 CALM      29.89F
LAND O LAKES   LGT RAIN  64  59  84 E7        29.93F
PHILLIPS       RAIN      64  63  99 E5        29.87F
TOMAHAWK       RAIN      64  60  89 E6        29.87S
MEDFORD        CLOUDY    62  62 100 E9G36     29.85R
MERRILL        RAIN     N/A N/A N/A SE9G20    29.86F
$$

WIZ029-030-035-036-043>047-260100-
CENTRAL WISCONSIN

CITY           SKY/WX    TMP DP  RH WIND       PRES   REMARKS
WAUSAU         RAIN      65  50  59 E15       29.83F
6HR MIN TEMP:  65; 6HR MAX TEMP:  79; 6HR PCP:  0.36;

MOSINEE        CLOUDY    63  63 100 E12G17    29.86F
MARSHFIELD     CLOUDY    66  62  87 SE13      29.84S
6HR MIN TEMP:  66; 6HR MAX TEMP:  77; 6HR PCP:  0.24;

STEVENS POINT  CLOUDY    64  61  90 E18       29.84F
WAUPACA        LGT RAIN  66  65  97 NW10      29.92R
WAUTOMA        LGT RAIN  63  62  97 E13       29.87F
6HR MIN TEMP:  63; 6HR MAX TEMP:  78;

WISC RAPIDS    CLOUDY    67  61  81 SE12      29.87R
6HR MIN TEMP:  66; 6HR MAX TEMP:  81; 6HR PCP:  0.35;

CAMP DOUGLAS   CLOUDY    66  66 100 NE5       29.84R
$$

WIZ011>013-019>022-031-037>040-048>050-260100-
NORTHEAST WISCONSIN

CITY           SKY/WX    TMP DP  RH WIND       PRES   REMARKS
ANTIGO         RAIN      61  60  96 E20G28    29.88F
SHAWANO        RAIN      65  60  83 E8        29.94F
OCONTO         CLOUDY    59  59 100 NE7       29.93F
STURGEON BAY   NOT AVBL
GREEN BAY      CLOUDY    62  58  86 NE14      29.91F
6HR MIN TEMP:  62; 6HR MAX TEMP:  71;

MANITOWOC      NOT AVBL
APPLETON       TSTM      63  61  94 NW6       29.91F
CLINTONVILLE   RAIN      63  59  88 E6        29.93F
OSHKOSH        LGT RAIN  63  58  83 NE9       29.90R
6HR MIN TEMP:  63; 6HR MAX TEMP:  76; 6HR PCP:  0.14;

$$

WIZ032>034-041-042-053>061-260100-
SOUTHWEST WISCONSIN

CITY           SKY/WX    TMP DP  RH WIND       PRES   REMARKS
LA CROSSE      MOSUNNY   77  63  61 SW10      29.80S
6HR MIN TEMP:  71; 6HR MAX TEMP:  80; 6HR PCP:  0.09;

SPARTA         PTSUNNY   76  68  76 SW3       29.83S
VIROQUA        MOSUNNY   78  62  58 SW14G21   29.84S HX  80
BOSCOBEL       MOSUNNY   82  61  48 SW12G20   29.81S HX  83
6HR MIN TEMP:  77; 6HR MAX TEMP:  87; 6HR PCP:  0.02;

PRAIRIE DU CHI PTSUNNY   80  59  48 SW7       29.81S HX  81
PLATTEVILLE    PTSUNNY   81  60  48 SW17      29.84S HX  82
$$

WIZ056-057-062-063-064-067-068-260100-
SOUTH CENTRAL WISCONSIN

CITY           SKY/WX    TMP DP  RH WIND       PRES   REMARKS
REEDSBURG      RAIN      71  67  87 W6        29.82R
BARABOO/DELLS  CLOUDY    75  62  64 W5        29.82S
LONE ROCK      NOT AVBL
MINERAL POINT  CLOUDY    81  59  47 SW12      29.84F HX  81
MADISON        CLOUDY    75  66  73 SE12      29.82F
6HR MIN TEMP:  73; 6HR MAX TEMP:  85; 6HR PCP:  0.06;

MIDDLETON      CLOUDY    83  59  44 SW9       29.83S HX  83
WATERTOWN      CLOUDY    69  68  96 E10       29.85F
MONROE         MOSUNNY   75  63  64 S7        29.84F
JANESVILLE     TSTM      73  64  73 S18G25    29.89R
$$

WIZ051-052-058>065-066-070>072-260100-
SOUTHEAST WISCONSIN

CITY           SKY/WX    TMP DP  RH WIND       PRES   REMARKS
MILWAUKEE      LGT RAIN  54  52  93 NE8       29.90S FOG
6HR MIN TEMP:  53; 6HR MAX TEMP:  61; 6HR PCP: TRACE;

WAUKESHA       MOSUNNY   64  61  88 E8        29.90S
MILWAUKEE/TIMM MOSUNNY   57  54  88 N5        29.92S
RACINE         CLOUDY    62  59  90 S7        29.90F
6HR MIN TEMP:  57; 6HR MAX TEMP:  67; 6HR PCP:  0.12;

BURLINGTON     CLOUDY    70  63  78 S3        29.88S
KENOSHA        CLOUDY    67  63  87 SE8       29.89R FOG
6HR MIN TEMP:  66; 6HR MAX TEMP:  76; 6HR PCP:  0.09;

FOND DU LAC    LGT RAIN  66  61  84 SE15G23   29.87F
6HR MIN TEMP:  66; 6HR MAX TEMP:  81; 6HR PCP:  0.03;

SHEBOYGAN      LGT RAIN  53  51  93 SE7       29.93S
6HR MIN TEMP:  53; 6HR MAX TEMP:  64; 6HR PCP:  0.03;

WEST BEND      LGT RAIN  61  57  88 N7        29.89F
JUNEAU         PTSUNNY   71  64  77 SE16G23   29.86F
$$

LSZ147-162-260100-
LAKE SUPERIOR

STATION/POSITION TIME  TEMP    WIND        PRES    WAVE
                       AIR SEA DIR/SP/G            HT/PER
                 (UTC) (F)     (DEG/KT/KT) (MB)    (FT/S)
W MID LAKE BUOY  2250   41 38   60/ 17/ 21 1014.2F   4/ 5
DEVILS ISLAND    2300   44      40/ 18/ 21 1014.3R
PORT WING        2215   41      10/ 25/ 37 1015.2
SAXON HARBOR     2300   47     220/  5/ 11 1012.9R
$$

LMZ867-665-643>646-260100-
LAKE MICHIGAN

STATION/POSITION TIME  TEMP    WIND        PRES    WAVE
                       AIR SEA DIR/SP/G            HT/PER
                 (UTC) (F)     (DEG/KT/KT) (MB)    (FT/S)
CHAMBERS ISLAND  2300   59      60/  5/  9 1014.9S
N MID LAKE BUOY  2250   49 45   50/ 10/ 10 1014.4F   1
NORTHPORT PIER   2300   57      90/  7/ 10 1014.9S
SISTER BAY       2220   63      70/ 11/ 22   N/A
ALGOMA LAKESHORE 2317           20/ 15/ 21   N/A
KEWAUNEE LAKESHO 2300                      1013.8F
SHEBOYGAN LAKESH 2300   48     360/ 11/ 12 1014.2F
PORT WASHINGTON  2340   55      60/ 11/ 13 1012.9F
S MID LAKE BUOY  2250   58 53   90/  8/  8 1012.0F   0
KENOSHA   LAKESH 2300   60     110/  1/  5 1013.5R
$$

TC  - TEMPERATURE IN CELSIUS
VSB - VISIBILITY IN STATUTE MILES
WCI - WIND CHILL INDEX
HX  - HEAT INDEX





USA.gov is the U.S. government's official web portal to all federal, state and local government web resources and services.